When you browse on this site, cookies collect data to enhance your experience and personalize the content and advertising you see.
Visit our Privacy Policy to learn more. By continuing to use the site, you agree to this use of cookies and data.
  • In Österreich
  • Länderverzeichnis
  • Für 7 Tage
  • Wassertemperatur
  • Wetterkarte
  • News
  • Widgets
  • user-avatar
    Anmelden

    Stündliche Wetter Escaldes-Engordany

    Heute, 5 Dezember, Donnerstag

    Zeit Temperatur Niederschläge Wind Luftdruck Luftfeuchtigkeit
    00:00 +4°C° 0 mm 1 m/S 636 mmHg 96%
    01:00 +4°C° 0.5 mm 1 m/S 636 mmHg 96%
    02:00 +3°C° 0.5 mm 2 m/S 635 mmHg 96%
    03:00 +3°C° 0.5 mm 2 m/S 635 mmHg 96%
    04:00 +3°C° 0.2 mm 2 m/S 636 mmHg 96%
    05:00 +3°C° 0.2 mm 2 m/S 637 mmHg 96%
    06:00 +3°C° 0 mm 2 m/S 637 mmHg 96%
    07:00 +3°C° 0.2 mm 2 m/S 637 mmHg 96%
    08:00 +3°C° 0.2 mm 2 m/S 638 mmHg 95%
    09:00 +4°C° 0.2 mm 2 m/S 638 mmHg 94%
    10:00 +4°C° 0.1 mm 2 m/S 639 mmHg 92%
    11:00 +6°C° 0.1 mm 1 m/S 639 mmHg 89%
    12:00 +6°C° 0.1 mm 1 m/S 640 mmHg 87%
    13:00 +6°C° 0.1 mm 1 m/S 639 mmHg 88%
    14:00 +6°C° 0.1 mm 1 m/S 639 mmHg 89%
    15:00 +6°C° 0.1 mm 1 m/S 639 mmHg 91%
    16:00 +5°C° 0 mm 1 m/S 639 mmHg 92%
    17:00 +4°C° 0 mm 1 m/S 639 mmHg 93%
    18:00 +4°C° 0 mm 1 m/S 640 mmHg 95%
    19:00 +3°C° 0 mm 1 m/S 640 mmHg 94%
    20:00 +3°C° 0 mm 1 m/S 640 mmHg 93%
    21:00 +2°C° 0 mm 1 m/S 639 mmHg 92%
    22:00 +2°C° 0 mm 1 m/S 640 mmHg 91%
    23:00 +2°C° 0 mm 1 m/S 640 mmHg 91%

    Morgen, 6 Dezember, Freitag

    Zeit Temperatur Niederschläge Wind Luftdruck Luftfeuchtigkeit
    00:00 +2°C° 0 mm 1 m/S 640 mmHg 90%
    01:00 +2°C° 0 mm 1 m/S 639 mmHg 89%
    02:00 +2°C° 0 mm 1 m/S 639 mmHg 89%
    03:00 +1°C° 0 mm 1 m/S 639 mmHg 88%
    04:00 +1°C° 0 mm 1 m/S 639 mmHg 88%
    05:00 +1°C° 0 mm 1 m/S 639 mmHg 88%
    06:00 +1°C° 0 mm 1 m/S 639 mmHg 88%
    07:00 +3°C° 0 mm 1 m/S 640 mmHg 86%
    08:00 +3°C° 0 mm 0 m/S 640 mmHg 84%
    09:00 +4°C° 0 mm 0 m/S 641 mmHg 82%
    10:00 +5°C° 0 mm 0 m/S 641 mmHg 80%
    11:00 +7°C° 0 mm 1 m/S 641 mmHg 77%
    12:00 +8°C° 0 mm 1 m/S 641 mmHg 75%
    13:00 +8°C° 0 mm 1 m/S 641 mmHg 77%
    14:00 +7°C° 0 mm 1 m/S 640 mmHg 79%
    15:00 +7°C° 0 mm 1 m/S 640 mmHg 82%
    16:00 +5°C° 0 mm 1 m/S 639 mmHg 85%
    17:00 +4°C° 0 mm 1 m/S 639 mmHg 88%
    18:00 +3°C° 0 mm 1 m/S 639 mmHg 91%
    19:00 +2°C° 0 mm 1 m/S 639 mmHg 90%
    20:00 +2°C° 0 mm 1 m/S 639 mmHg 90%
    21:00 +2°C° 0 mm 1 m/S 639 mmHg 89%
    22:00 +2°C° 0 mm 1 m/S 639 mmHg 89%
    23:00 +2°C° 0 mm 1 m/S 639 mmHg 88%

    übermorgen, 7 Dezember, Samstag

    Zeit Temperatur Niederschläge Wind Luftdruck Luftfeuchtigkeit
    00:00 +2°C° 0 mm 1 m/S 639 mmHg 88%
    01:00 +2°C° 0 mm 1 m/S 639 mmHg 87%
    02:00 +2°C° 0 mm 1 m/S 639 mmHg 87%
    03:00 +2°C° 0 mm 1 m/S 639 mmHg 86%
    04:00 +2°C° 0 mm 1 m/S 639 mmHg 86%
    05:00 +2°C° 0 mm 1 m/S 639 mmHg 85%
    06:00 +2°C° 0 mm 1 m/S 639 mmHg 84%
    07:00 +3°C° 0 mm 1 m/S 640 mmHg 81%
    08:00 +4°C° 0 mm 1 m/S 641 mmHg 78%
    09:00 +5°C° 0 mm 1 m/S 641 mmHg 75%
    10:00 +6°C° 0 mm 1 m/S 641 mmHg 72%
    11:00 +8°C° 0 mm 1 m/S 642 mmHg 68%
    12:00 +9°C° 0 mm 1 m/S 642 mmHg 65%
    13:00 +8°C° 0 mm 1 m/S 642 mmHg 70%
    14:00 +8°C° 0 mm 1 m/S 641 mmHg 75%
    15:00 +7°C° 0 mm 1 m/S 641 mmHg 79%
    16:00 +6°C° 0 mm 1 m/S 640 mmHg 84%
    17:00 +4°C° 0 mm 1 m/S 640 mmHg 88%
    18:00 +3°C° 0 mm 1 m/S 640 mmHg 92%
    19:00 +3°C° 0 mm 1 m/S 640 mmHg 88%
    20:00 +2°C° 0 mm 1 m/S 640 mmHg 85%
    21:00 +2°C° 0 mm 1 m/S 640 mmHg 81%
    22:00 +2°C° 0 mm 1 m/S 640 mmHg 78%
    23:00 +2°C° 0 mm 1 m/S 640 mmHg 75%

    8 Dezember, Sonntag

    Zeit Temperatur Niederschläge Wind Luftdruck Luftfeuchtigkeit
    00:00 +2°C° 0 mm 1 m/S 640 mmHg 71%
    01:00 +2°C° 0 mm 1 m/S 640 mmHg 68%
    02:00 +2°C° 0 mm 1 m/S 640 mmHg 64%
    03:00 +2°C° 0 mm 1 m/S 639 mmHg 60%
    04:00 +2°C° 0 mm 1 m/S 639 mmHg 57%
    05:00 +2°C° 0 mm 1 m/S 639 mmHg 55%
    06:00 +1°C° 0 mm 2 m/S 639 mmHg 52%
    07:00 +4°C° 0 mm 1 m/S 640 mmHg 51%
    08:00 +5°C° 0 mm 1 m/S 641 mmHg 50%
    09:00 +6°C° 0 mm 1 m/S 641 mmHg 49%
    10:00 +8°C° 0 mm 1 m/S 642 mmHg 51%
    11:00 +10°C° 0 mm 1 m/S 642 mmHg 53%
    12:00 +11°C° 0 mm 1 m/S 642 mmHg 55%
    13:00 +10°C° 0.1 mm 1 m/S 642 mmHg 63%
    14:00 +9°C° 0.1 mm 1 m/S 641 mmHg 70%
    15:00 +8°C° 0.1 mm 1 m/S 641 mmHg 78%
    16:00 +8°C° 0.4 mm 1 m/S 641 mmHg 82%
    17:00 +6°C° 0.4 mm 2 m/S 641 mmHg 87%
    18:00 +6°C° 0.4 mm 2 m/S 641 mmHg 91%
    19:00 +6°C° 0.1 mm 2 m/S 641 mmHg 92%
    20:00 +5°C° 0.1 mm 2 m/S 641 mmHg 94%
    21:00 +5°C° 0.1 mm 2 m/S 642 mmHg 95%
    22:00 +4°C° 0 mm 2 m/S 641 mmHg 90%
    23:00 +3°C° 0 mm 2 m/S 641 mmHg 85%

    9 Dezember, Montag

    Zeit Temperatur Niederschläge Wind Luftdruck Luftfeuchtigkeit
    00:00 +2°C° 0 mm 2 m/S 641 mmHg 80%
    01:00 +2°C° 0 mm 2 m/S 641 mmHg 71%
    02:00 +2°C° 0 mm 2 m/S 641 mmHg 62%
    03:00 +1°C° 0 mm 2 m/S 641 mmHg 53%
    04:00 +1°C° 0 mm 2 m/S 641 mmHg 53%
    05:00 +1°C° 0 mm 2 m/S 641 mmHg 54%
    06:00 0°C° 0 mm 3 m/S 641 mmHg 55%
    07:00 +2°C° 0 mm 2 m/S 642 mmHg 52%
    08:00 +3°C° 0 mm 2 m/S 642 mmHg 48%
    09:00 +4°C° 0 mm 2 m/S 643 mmHg 45%
    10:00 +5°C° 0 mm 2 m/S 643 mmHg 42%
    11:00 +7°C° 0 mm 2 m/S 644 mmHg 40%
    12:00 +8°C° 0 mm 2 m/S 644 mmHg 37%
    13:00 +7°C° 0 mm 2 m/S 644 mmHg 43%
    14:00 +7°C° 0 mm 2 m/S 644 mmHg 49%
    15:00 +6°C° 0 mm 2 m/S 643 mmHg 56%
    16:00 +4°C° 0 mm 2 m/S 643 mmHg 57%
    17:00 +3°C° 0 mm 2 m/S 643 mmHg 59%
    18:00 +1°C° 0 mm 2 m/S 642 mmHg 60%
    19:00 +1°C° 0 mm 2 m/S 643 mmHg 58%
    20:00 +1°C° 0 mm 2 m/S 643 mmHg 55%
    21:00 +2°C° 0 mm 2 m/S 643 mmHg 52%
    22:00 +2°C° 0 mm 2 m/S 643 mmHg 51%
    23:00 +2°C° 0 mm 2 m/S 643 mmHg 50%

    10 Dezember, Dienstag

    Zeit Temperatur Niederschläge Wind Luftdruck Luftfeuchtigkeit
    00:00 +2°C° 0 mm 2 m/S 643 mmHg 49%
    01:00 +2°C° 0 mm 2 m/S 643 mmHg 48%
    02:00 +2°C° 0 mm 2 m/S 643 mmHg 46%
    03:00 +2°C° 0 mm 2 m/S 643 mmHg 45%
    04:00 +2°C° 0 mm 2 m/S 642 mmHg 42%
    05:00 +2°C° 0 mm 2 m/S 642 mmHg 39%
    06:00 +2°C° 0 mm 2 m/S 642 mmHg 36%
    07:00 +5°C° 0 mm 1 m/S 642 mmHg 36%
    08:00 +6°C° 0 mm 1 m/S 643 mmHg 35%
    09:00 +7°C° 0 mm 1 m/S 643 mmHg 35%
    10:00 +8°C° 0 mm 1 m/S 643 mmHg 35%
    11:00 +9°C° 0 mm 1 m/S 643 mmHg 36%
    12:00 +10°C° 0 mm 0 m/S 643 mmHg 36%
    13:00 +9°C° 0 mm 0 m/S 643 mmHg 42%
    14:00 +8°C° 0 mm 0 m/S 642 mmHg 48%
    15:00 +7°C° 0 mm 0 m/S 641 mmHg 54%
    16:00 +6°C° 0 mm 0 m/S 641 mmHg 51%
    17:00 +6°C° 0 mm 1 m/S 640 mmHg 49%
    18:00 +5°C° 0 mm 1 m/S 639 mmHg 47%
    19:00 +4°C° 0 mm 1 m/S 639 mmHg 45%
    20:00 +4°C° 0 mm 1 m/S 639 mmHg 42%
    21:00 +4°C° 0 mm 1 m/S 639 mmHg 40%
    22:00 +4°C° 0 mm 1 m/S 639 mmHg 40%
    23:00 +4°C° 0 mm 1 m/S 638 mmHg 39%
    Mehr zeigen